Location: Liberec
(50.7830°N, 15.0500°E)
Time: 17:11:13
(UTC+02:00)

ISS - Visible Passes

Search period start: 28 September 2023 00:00
Search period end: 08 October 2023 00:00
Orbit: 413 x 421 km, 51.6° (Epoch: 28 September)

Date Brightness Start Highest point End Pass type
(mag) Time Alt. Az. Time Alt. Az. Time Alt. Az.
28 Sep -3.3 20:05:04 10° W 20:08:20 54° SSW 20:10:02 25° SE visible
28 Sep -0.6 21:42:45 10° WSW 21:42:57 11° WSW 21:42:57 11° WSW visible
29 Sep -3.6 19:16:46 10° WNW 19:20:06 72° SSW 19:23:26 10° ESE visible
29 Sep -1.7 20:53:56 10° W 20:56:29 20° SW 20:56:37 20° SSW visible
30 Sep -2.2 20:05:22 10° W 20:08:18 29° SSW 20:10:18 16° SSE visible
01 Oct -2.7 19:16:52 10° W 19:20:01 41° SSW 19:23:11 10° SE visible
02 Oct -1.1 20:05:58 10° WSW 20:07:53 14° SW 20:09:47 10° S visible
03 Oct -1.4 19:16:58 10° W 19:19:35 21° SW 19:22:11 10° SSE visible
05 Oct -0.4 19:18:34 10° SW 19:18:44 10° SW 19:18:55 10° SW visible
